Regional Weather Roundup
Issued by NWS

Home | Current Version | Previous Version | Graphics & Text | Print | Product List | Glossary On
Versions: 1 2 3 4 5 6 7 8 9 10 11 12 13 14 15 16 17 18 19 20 21 22 23 24 25 26 27 28 29 30 31 32 33 34 35 36 37 38 39 40 41 42 43 44 45 46 47 48 49 50
000
ASUS43 KFSD 290402
RWRSD

WEATHER ROUNDUP FOR SOUTH DAKOTA
NATIONAL WEATHER SERVICE SIOUX FALLS SD
1000 PM CST FRI NOV 28 2014

NOTE: "FAIR" INDICATES FEW OR NO CLOUDS BELOW 12,000 FEET WITH NO
SIGNIFICANT WEATHER AND/OR OBSTRUCTIONS TO VISIBILITY.


SDZ001>005-009-010-012>017-290500-
NORTHWEST AND NORTH CENTRAL SOUTH DAKOTA

CITY           SKY/WX    TMP DP  RH WIND       PRES   REMARKS
BUFFALO          N/A     45  29  53 W10       29.37F
FAITH            N/A     36  27  69 S15       29.45F
MOBRIDGE       CLEAR     24  20  84 SE10      29.45F WCI  14
$$

SDZ012>016-024>037-041>051-057-063-072>074-290500-
SOUTHWEST AND SOUTH CENTRAL SOUTH DAKOTA

CITY           SKY/WX    TMP DP  RH WIND       PRES   REMARKS
RAPID CTY ARPT MOCLDY    50  23  34 W5        29.51S
PIERRE         CLEAR     28  24  85 SE8       29.48F WCI  20
CUSTER         PTCLDY    46  19  34 W15G22    29.60F
ELLSWORTH AFB  MOCLDY    53  25  33 W13       29.50S
PHILIP         MOCLDY    38  27  64 W8        29.48F
PINE RIDGE     CLEAR     40  23  50 SW5       29.58F
WINNER         FAIR      47  28  47 S6        29.51F
$$

SDZ004>011-016>023-039-040-290500-
NORTHEAST SOUTH DAKOTA

CITY           SKY/WX    TMP DP  RH WIND       PRES   REMARKS
ABERDEEN       PTCLDY    14  10  84 S5        29.55F WCI   6
WATERTOWN      MOCLDY    20  17  88 SE8       29.55F WCI  10
SISSETON         N/A     18  17  96 S14       29.60F WCI   4
$$

SDZ017-020-022-023-036>040-048>070-290500-
SOUTHEAST SOUTH DAKOTA

CITY           SKY/WX    TMP DP  RH WIND       PRES   REMARKS
SIOUX FALLS    PTCLDY    24  21  88 E6        29.59F WCI  17
HURON          CLEAR     27  24  89 SE7       29.55F WCI  19
MITCHELL       CLEAR     28  25  88 SE9       29.56F WCI  19
YANKTON        MOCLDY    30  27  86 E3        29.58F
$$

ABBREVIATIONS USED IN REMARKS
   TC - TEMPERATURE IN CELSIUS
  WCI - WIND CHILL INDEX
   HX - HEAT INDEX
  VSB - VISIBILITY



USA.gov is the U.S. government's official web portal to all federal, state and local government web resources and services.